Location: Betpouey
(42.8833°N, 0.0333°E)
Time: 16:44:49
(UTC+00:00)

deb Kosmos-1375 - Visible Passes

Search period start: 24 June 2021 00:00
Search period end: 04 July 2021 00:00
Orbit: 950 x 991 km, 65.8° (Epoch: 23 June)

Date Brightness Start Highest point End Pass type
(mag) Time Alt. Az. Time Alt. Az. Time Alt. Az.
24 Jun ? 20:25:41 10° NW 20:32:08 72° WSW 20:38:30 10° SSE visible
24 Jun ? 22:16:40 10° W 22:18:34 11° W 22:20:27 10° WSW visible
25 Jun ? 20:50:15 10° NW 20:56:11 39° WSW 21:02:03 10° S visible
26 Jun ? 21:15:24 10° WNW 21:20:02 21° WSW 21:24:38 10° SSW visible
28 Jun ? 20:15:35 10° NW 20:21:22 36° WSW 20:27:04 10° S visible
29 Jun ? 20:40:54 10° WNW 20:45:10 19° WSW 20:49:24 10° SSW visible
